Terminal Aerodrome Forecast
Issued by NWS Memphis, TN

Home | Current Version | Previous Version | Text Only | Print | Product List | Glossary On
Versions: 1 2 3 4 5 6 7 8 9 10 11 12 13 14 15 16
792
FTUS44 KMEG 252332
TAFMKL
TAF
KMKL 252332Z 2600/2624 31006KT P6SM SKC
     FM260100 00000KT P6SM SKC
     FM261500 14008KT P6SM SCT250=

USA.gov is the U.S. government's official web portal to all federal, state and local government web resources and services.